Location: Trebic
(49.2170°N, 15.8830°E)
Time: 05:10:48
(UTC+02:00)

Transit 2A Rocket - All Passes

Search period start: 23 July 2019 00:00
Search period end: 02 August 2019 00:00
Orbit: 588 x 915 km, 66.7° (Epoch: 22 July)

Date Brightness Start Highest point End Pass type
(mag) Time Alt. Az. Time Alt. Az. Time Alt. Az.
23 Jul - 02:34:30 10° SSE 02:39:09 24° ESE 02:43:36 10° ENE visible
23 Jul - 04:15:22 10° SW 04:21:21 75° NW 04:26:56 10° NNE visible
23 Jul - 06:00:20 10° W 06:04:49 23° NNW 06:09:04 10° NNE daylight
23 Jul - 07:47:25 10° NNW 07:49:28 12° N 07:51:28 10° NNE daylight
23 Jul - 09:31:21 10° NNW 09:34:24 15° NNE 09:37:17 10° NE daylight
23 Jul - 11:13:31 10° NNW 11:18:23 44° NE 11:22:49 10° ESE daylight
23 Jul - 12:56:30 10° NW 13:00:47 31° WSW 13:04:47 10° S daylight
24 Jul - 01:53:47 10° SE 01:56:57 15° ESE 02:00:03 10° ENE visible
24 Jul - 03:32:50 10° SSW 03:38:48 75° ESE 03:44:23 10° NE visible
24 Jul - 05:16:52 10° W 05:21:55 29° NW 05:26:42 10° NNE daylight
24 Jul - 07:03:43 10° NW 07:06:18 13° NNW 07:08:48 10° NNE daylight
24 Jul - 08:48:52 10° NNW 08:51:16 13° NNE 08:53:36 10° NE daylight
24 Jul - 10:31:06 10° NNW 10:35:37 30° NE 10:39:46 10° E daylight
24 Jul - 12:13:40 10° NW 12:18:29 53° WSW 12:22:52 10° SSE daylight
25 Jul - 02:50:38 10° S 02:56:21 49° ESE 03:01:45 10° NE visible
25 Jul - 04:33:36 10° WSW 04:39:07 40° NW 04:44:18 10° NNE visible
25 Jul - 06:19:54 10° WNW 06:23:11 15° NNW 06:26:20 10° NNE daylight
25 Jul - 08:06:12 10° NNW 08:08:06 12° N 08:09:57 10° NNE daylight
25 Jul - 09:48:43 10° NNW 09:52:43 22° NNE 09:56:28 10° E daylight
25 Jul - 11:31:02 10° NW 11:36:03 88° SW 11:40:35 10° SSE daylight
25 Jul - 13:15:37 10° WNW 13:17:41 13° WSW 13:19:42 10° SW daylight
26 Jul - 02:08:49 10° S 02:13:59 32° ESE 02:18:55 10° NE visible
26 Jul - 03:50:35 10° SW 03:56:26 58° NW 04:01:52 10° NNE visible
26 Jul - 05:36:08 10° WNW 05:40:08 19° NNW 05:43:56 10° NNE daylight
26 Jul - 07:23:09 10° NNW 07:24:55 11° N 07:26:38 10° NNE daylight
26 Jul - 09:06:20 10° NNW 09:09:45 17° NNE 09:12:57 10° ENE daylight
26 Jul - 10:48:31 10° NNW 10:53:29 58° NE 10:57:59 10° SE daylight
26 Jul - 12:31:53 10° WNW 12:35:34 22° WSW 12:39:02 10° SSW daylight
27 Jul - 01:27:31 10° SSE 01:31:44 20° ESE 01:35:48 10° ENE visible
27 Jul - 03:07:51 10° SW 03:13:50 85° NW 03:19:23 10° NE visible
27 Jul - 04:52:31 10° W 04:57:10 24° NW 05:01:33 10° NNE daylight
27 Jul - 06:39:36 10° NNW 06:41:44 12° N 06:43:47 10° NNE daylight
27 Jul - 08:23:55 10° NNW 08:26:40 14° NNE 08:29:18 10° NE daylight
27 Jul - 10:06:04 10° NNW 10:10:47 38° NE 10:15:05 10° ESE daylight
27 Jul - 11:48:52 10° NW 11:53:20 37° WSW 11:57:28 10° S daylight
28 Jul - 00:47:19 10° SE 00:49:35 12° ESE 00:51:48 10° E visible
28 Jul - 02:25:25 10° SSW 02:31:19 65° ESE 02:36:50 10° NE visible
28 Jul - 04:09:06 10° WSW 04:14:19 32° NW 04:19:12 10° NNE visible
28 Jul - 05:55:49 10° NW 05:58:34 14° NNW 06:01:14 10° NNE daylight
28 Jul - 07:41:25 10° NNW 07:43:32 12° N 07:45:35 10° NE daylight
28 Jul - 09:23:40 10° NNW 09:27:58 27° NE 09:31:56 10° E daylight
28 Jul - 11:06:08 10° NW 11:10:59 63° WSW 11:15:25 10° SSE daylight
29 Jul - 01:43:20 10° S 01:48:53 42° ESE 01:54:08 10° NE visible
29 Jul - 03:25:56 10° WSW 03:31:33 45° NW 03:36:47 10° NNE visible
29 Jul - 05:12:00 10° WNW 05:15:28 16° NNW 05:18:48 10° NNE daylight
29 Jul - 06:58:40 10° NNW 07:00:21 11° N 07:02:00 10° NNE daylight
29 Jul - 08:41:16 10° NNW 08:45:02 20° NNE 08:48:34 10° ENE daylight
29 Jul - 10:23:32 10° NW 10:28:30 79° NE 10:33:01 10° SE daylight
29 Jul - 12:07:33 10° WNW 12:10:18 15° WSW 12:12:56 10° SW daylight
30 Jul - 01:01:41 10° SSE 01:06:34 27° ESE 01:11:14 10° NE visible
30 Jul - 02:43:01 10° SW 02:48:53 66° NW 02:54:21 10° NNE visible
30 Jul - 04:28:16 10° WNW 04:32:27 20° NNW 04:36:25 10° NNE visible
30 Jul - 06:15:26 10° NNW 06:17:09 11° N 06:18:51 10° NNE daylight
30 Jul - 07:58:54 10° NNW 08:02:01 16° NNE 08:04:59 10° ENE daylight
30 Jul - 09:41:02 10° NNW 09:45:53 50° NE 09:50:19 10° ESE daylight
30 Jul - 11:24:10 10° NW 11:28:08 26° WSW 11:31:52 10° SSW daylight
31 Jul - 00:20:40 10° SE 00:24:20 17° ESE 00:27:54 10° ENE visible
31 Jul - 02:00:22 10° SSW 02:06:19 85° SE 02:11:51 10° NE visible
31 Jul - 03:44:43 10° W 03:49:32 27° NW 03:54:04 10° NNE visible
31 Jul - 05:31:45 10° NW 05:33:58 12° NNW 05:36:08 10° NNE daylight
31 Jul - 07:16:29 10° NNW 07:18:56 13° NNE 07:21:17 10° NE daylight
31 Jul - 08:58:36 10° NNW 09:03:09 33° NE 09:07:19 10° ESE daylight
31 Jul - 10:41:16 10° NW 10:45:52 44° WSW 10:50:06 10° S daylight
01 Aug - 01:18:04 10° SSW 01:23:50 56° ESE 01:29:14 10° NE visible
01 Aug - 03:01:23 10° WSW 03:06:42 36° NW 03:11:41 10° NNE visible
01 Aug - 04:47:55 10° NW 04:50:50 14° NNW 04:53:39 10° NNE visible
01 Aug - 06:33:57 10° NNW 06:35:46 12° N 06:37:34 10° NNE daylight
01 Aug - 08:16:13 10° NNW 08:20:18 24° NNE 08:24:06 10° E daylight
01 Aug - 09:58:35 10° NW 10:03:28 75° WSW 10:07:56 10° SSE daylight
01 Aug - 11:44:24 10° W 11:44:59 10° WSW 11:45:35 10° WSW daylight
